星链-35405(STARLINK-35405)

导读

STARLINK-35405是美国于2025年11月11日发射的星链卫星,隶属于SpaceX星链星座项目。星链项目旨在构建全球卫星互联网星座,为全球偏远地区、高需求区域等提供高速低延迟宽带网络服务。该卫星入轨后将和其他星链卫星协同工作,进一步拓展星链星座覆盖范围,提升全球卫星互联网服务能力。

Basic Information
目录编号:
66440
目录名称:
STARLINK-35405
国际标识:
2025-259U
轨道中心:
EARTH
卫星名称:
星链-35405
卫星全名:
星链-35405(STARLINK-35405)
卫星状态:
在轨 (已飞行298 天)
发射日期:
2025-11-11 UTC
国别 :
美国 (US)
星等 :
--
Orbit Information
数据来源 国际轨道数据
星历时间: 2026-09-05T20:25:20+0800
6小时前
查看轨道信息
半长轴: 6861.2km
偏心率: 0.0001485
轨道倾角: 43.004°
近地点辐角 266.836°
升交点赤经 338.769°
平近点角 93.233°
近地点: 482.044km
远地点: 484.082km
周期: 94.267分钟
每日圈数: 15.275754
Detailed Information
固有亮度:
5
最大亮度:
2.5
卫星平台:
Starlink V1.0
覆盖范围:
全球
运营商:
太空探索技术公司
运营商所在国:
美国
制造商(研发单位):
太空探索技术公司
制造商所在国:
美国
使用方式:
暂无
Satellite Introduction
Starlink 计划是 SpaceX 推出的全球卫星互联网项目,通过发射低轨道卫星,为全球尤其是偏远地区提供高速、低延迟的互联网服务。自 2019 年起,Starlink 已部署数千颗卫星,旨在缩小全球数字鸿沟,推动互联网普及。该项目还为军事、航空等行业提供通信支持,带来广泛经济效益。
2D Orbit Map
3D Orbit Map
Orbit Altitude Analysis Chart
Orbit Inclination Analysis Chart
Orbit Comprehensive Analysis Chart
View Comprehensive Chart
Conjunction Data List
Event ID Objects TCA Miss Dist (km) Collision Risk Probability Collision Risk Index (CRI) Action
CDM_260906-225103-945106-644021
SWARM B (39451)
2026-09-06T
22:51:59+0000
0.433 km
远距离
1.678217E-4 高风险 0.79
CDM_260906-215606-429106-644021
2026-09-06T
21:56:32+0000
2.418 km
极远距离
1.601918E-6 低风险 0.39
CDM_260908-030805-620006-644021
HAWK-7C (56200)
2026-09-08T
03:08:04+0000
2.775 km
极远距离
1.454845E-6 低风险 0.38